Weather in Varkaus

Finland     62°18′44″N   27°52′46″E
temp.,
°C
wind,
m/s
gust,
m/s
humid.,
%
clouds,
%
prec.,
mm/h
press.,
hPa
HPBL,
m
4 december, sat
sat423:00−9ne41188100 0.1 1004552
02:00−10ne4118786 0.1 1005521
05:00−11ne4118254 0.0 1006539
08:00−12ne412725 0.0 1009613
11:00−12ne412680 0.0 1011694
14:00−12ne411711 0.0 1013670
17:00−12ne411785 0.0 1015595
20:00−13ne410815 0.0 1017560
5 december, sun
sun523:00−14ne310805 0.0 1019503
02:00−14ne39845 0.0 1020468
05:00−15ne39875 0.0 1021430
08:00−15ne39895 0.0 1023390
11:00−15ne389030 0.0 1024422
14:00−16ne258824 0.0 1025347
17:00−17ene26905 0.0 1026242
20:00−18ene26915 0.0 1027223
6 december, mon
mon623:00−17ene269310 0.0 1028205
02:00−17ene269523 0.0 1028196
05:00−16ene27946 0.0 1027192
08:00−16ne269747 0.0 1027142
11:00−13ne289569 0.0 1026242
14:00−12ene379582 0.1 1025251
17:00−12ene389693 0.0 1024264
20:00−11ene3895100 0.1 1023297
7 december, tue
tue723:00−12ene379395 0.0 1022320
02:00−13ne259591 0.0 1021135
05:00−12nne259585 0.1 1020250
08:00−13nne269672 0.2 1020187
11:00−12nne369386 0.0 1020239
14:00−12n369397 0.1 1019261
17:00−12n379371 0.1 1019290
20:00−13nnw379683 0.1 1019230
8 december, wed
wed823:00−13nnw379675 0.0 1019215
02:00−14nnw379788 0.1 1019195
05:00−14nw379687 0.1 1019222
08:00−14nw379791 0.1 1019212
11:00−14nw379583 0.0 1020214
14:00−13nw379564 0.0 1020201
17:00−14wnw379779 0.0 1021176
20:00−14wnw279773 0.0 1021155